OneWeb SL0090

operational
NORAD ID: 45427 Int'l Des: 2020-020 Owner: ONEWEB Country: UK Constellation: oneweb
LEOCIRCULARPOLARONEWEB_TYPE

OneWeb SL0090について

説明を読み込み中...

リアルタイム位置

3D地球を読み込み中...

次回通過

高度履歴

Altitude vs Time

uPlot chart will show altitude changes over time

軌道要素

1 45427U 20020D 25350.25315435 .00000495 00000-0 13604-2 0 9993
2 45427 87.8861 57.4935 0001722 101.0377 259.0945 13.11419849278693
Epoch: Dec 16, 2025 • Age: 15 hours

現在のステータス

高度 1229.5 km
速度 7.25 km/s
衛星直下点 77.21°N, 176.4°W
打ち上げ日 Mar 21, 2020
運用期間 5.7 years
タイプ internet

技術仕様

分類 Payload
質量 148.00 kg
乾燥質量 140.00 kg
総質量 148.00 kg
長さ 1.30 m
直径 1.00 m
スパン 5.00 m
形状 Trapezoid+2 pan
製造者 ONEWUS
バスタイプ ARROW
フェーズステータス In Orbit
所有者/国 ONEWEB/UK

大規模コンステレーション

Loading constellations...